Theta_e
318 319 318 319 319 318 318 318 318 318 318 318 318 318 317 318 317 313 310 308 308 307 306 307 306 306 307 306 307 306 306 308 310 313 315 313 310 312 314 312 315 315 312 311 311 313 312 311 312 311 317 318 316 317 314 318 323 328 337 331 323 325 324 322 322 320 322 323 317 315 314 317 317 313 312 310 316 317 315 322 322 322 325 324 325 323 324 332
319 318 318 318 318 317 317 317 318 318 318 317 317 317 317 318 316 314 310 307 307 307 306 306 306 306 307 306 307 306 307 310 313 314 314 311 312 313 315 314 313 315 312 310 312 312 312 312 311 314 322 320 315 317 317 316 322 335 334 327 332 335 323 320 323 318 317 319 317 316 313 315 316 315 312 313 317 316 316 318 319 326 326 325 326 324 326 333
319 318 316 317 317 317 317 317 318 317 317 317 317 317 317 317 315 312 309 307 307 307 306 306 306 306 307 307 308 307 309 312 313 314 312 311 315 314 315 317 315 314 311 310 312 311 312 313 311 316 322 321 317 318 320 317 319 328 328 326 338 339 323 318 321 319 317 316 318 316 312 314 314 313 312 315 318 315 319 319 318 325 329 336 330 324 329 332
318 317 316 315 316 317 317 317 317 317 316 317 316 316 316 315 313 311 308 307 306 307 307 307 306 306 307 307 308 310 311 310 310 314 311 312 316 314 316 318 316 313 310 311 312 312 312 311 311 316 320 319 319 318 318 318 317 319 324 328 330 327 320 318 319 319 317 315 317 316 313 313 312 312 313 316 318 316 320 319 319 323 334 345 331 324 331 331
318 317 316 315 315 316 316 317 317 316 316 316 316 315 315 314 312 310 308 307 307 307 307 307 306 306 307 307 309 311 311 307 309 315 313 313 317 316 315 316 313 311 311 312 313 313 311 310 312 318 320 317 318 319 317 316 315 315 318 322 322 318 316 317 317 317 315 313 316 317 314 313 312 312 315 317 319 322 319 316 320 319 333 347 333 326 330 328
317 316 315 314 315 316 316 316 317 316 315 315 315 315 314 314 313 311 308 308 307 307 307 307 306 306 307 307 310 312 311 308 312 316 315 315 318 316 313 312 312 311 312 314 312 312 312 311 313 317 318 316 317 318 316 312 314 319 317 315 318 318 315 315 316 315 313 314 317 317 314 312 313 313 315 316 318 321 316 313 314 312 324 334 329 327 330 330
317 316 315 314 315 316 315 316 316 315 315 314 314 315 314 314 313 310 308 307 306 306 306 307 307 307 307 308 311 313 311 311 313 315 315 315 316 313 311 311 312 311 312 313 311 313 315 313 315 317 317 315 316 315 314 313 315 322 319 315 316 315 314 314 315 314 313 316 316 313 312 313 316 314 310 312 317 316 309 306 305 309 319 325 327 329 330 330
316 315 315 313 314 315 315 315 315 315 314 314 315 314 314 314 313 311 308 307 306 306 306 306 307 306 308 310 313 314 311 313 314 314 313 313 314 312 311 312 312 312 312 311 311 314 314 313 313 314 316 314 314 314 312 313 317 320 318 316 315 313 314 313 314 316 314 314 312 311 313 314 315 312 310 316 319 314 310 313 315 317 324 327 329 331 328 328
316 315 314 313 313 314 314 315 315 314 314 314 315 314 314 313 312 311 308 307 306 306 306 306 307 307 309 310 312 313 311 313 315 314 312 312 312 311 312 312 312 313 312 311 311 311 312 313 313 312 315 313 311 314 314 315 317 318 317 317 316 315 315 313 315 318 317 314 312 313 315 314 311 310 314 318 317 313 315 331 335 330 332 330 330 329 327 327
316 314 314 313 312 313 314 315 314 314 314 315 315 314 315 314 312 310 308 307 305 305 305 306 307 307 311 310 308 309 310 315 315 313 311 311 312 312 313 312 312 313 311 312 310 310 312 312 312 311 314 313 311 313 314 314 315 317 318 318 318 317 316 315 315 317 317 315 314 315 315 315 312 312 316 316 312 310 320 340 337 334 338 330 328 327 325 326
315 314 313 312 312 314 314 315 314 313 314 314 314 314 315 314 312 309 308 306 305 305 305 306 306 308 312 310 307 307 312 316 315 312 311 312 312 312 313 312 312 313 312 312 310 310 312 310 308 310 312 312 312 312 312 313 313 315 318 317 317 318 316 315 316 316 317 314 313 315 315 315 312 314 320 315 309 310 320 340 336 336 336 326 328 327 324 324
315 314 313 312 312 314 314 314 313 313 314 314 314 314 314 314 311 309 307 306 306 305 305 306 307 309 311 309 307 309 315 317 314 312 312 312 312 313 314 313 313 314 313 312 311 311 312 310 309 312 313 312 313 314 313 314 314 315 317 315 317 320 316 313 315 315 316 314 314 315 313 316 316 316 321 314 310 313 318 330 334 334 330 325 327 326 324 323
315 314 313 312 313 313 313 313 313 313 313 313 313 313 314 313 311 309 307 306 306 305 305 306 307 310 310 308 310 312 316 317 313 312 312 312 313 314 315 314 314 316 314 313 313 312 312 311 312 313 313 315 316 311 312 314 314 315 315 317 318 319 315 312 315 315 314 314 314 313 311 318 319 316 317 311 309 313 316 321 325 328 325 321 323 325 325 322
314 314 313 312 313 313 313 312 312 312 313 312 313 313 313 312 310 309 307 306 305 305 306 307 309 310 308 308 311 314 317 315 313 312 312 313 314 315 314 314 315 315 314 313 313 313 314 311 311 312 311 315 314 310 317 319 317 316 312 320 322 315 316 316 314 316 313 312 312 310 311 318 318 314 312 310 311 312 315 320 320 321 320 317 318 320 323 321
314 314 313 312 312 313 313 312 311 311 312 312 313 313 312 311 309 307 307 306 306 306 307 308 311 310 307 309 311 314 316 314 313 312 312 314 313 314 313 313 314 313 313 313 314 314 313 311 314 316 312 312 312 314 322 321 323 322 311 320 321 312 319 321 314 317 315 312 312 310 313 318 317 316 311 309 313 314 315 320 319 319 318 316 315 314 318 317
314 313 313 312 312 312 312 311 311 311 311 312 313 312 311 309 308 307 307 307 308 308 308 311 312 308 307 310 312 314 314 313 313 312 313 313 313 314 312 312 312 313 314 313 314 313 312 315 315 313 313 313 315 320 324 320 325 324 314 318 321 314 320 319 314 316 316 314 314 312 314 319 317 318 315 310 313 314 316 321 320 320 318 315 314 312 313 312
314 313 313 312 312 312 311 311 311 311 311 312 312 311 310 309 308 307 309 310 312 310 310 314 311 306 307 309 313 315 314 313 313 313 314 313 313 313 311 313 312 311 313 312 313 312 312 316 312 311 317 315 315 321 320 316 320 321 317 318 319 318 318 316 316 314 313 315 315 313 314 319 319 319 318 313 312 313 317 323 323 322 321 319 315 313 312 311
314 313 312 312 311 311 310 310 310 310 311 311 311 311 310 310 309 309 312 312 312 310 310 312 308 308 309 309 314 315 312 313 313 313 314 314 313 313 312 314 311 310 313 314 313 313 314 316 315 318 320 313 314 318 317 316 318 319 318 316 316 317 314 316 320 314 312 315 316 316 316 318 320 318 317 312 311 314 316 319 319 320 322 320 317 315 313 311
314 313 312 312 311 311 310 310 310 311 311 310 312 312 311 311 311 311 312 311 309 307 310 310 308 312 312 310 315 314 312 313 314 313 314 314 313 312 313 312 314 315 315 315 313 315 320 320 316 318 317 313 314 314 317 322 322 320 321 321 322 322 318 318 319 314 312 316 317 319 318 319 320 318 318 314 310 313 314 315 316 316 318 317 316 315 313 313
314 313 312 312 311 310 310 309 310 311 311 312 313 312 310 311 313 313 313 313 310 307 310 311 310 313 312 313 316 314 313 312 313 314 313 314 313 313 313 312 316 317 315 319 316 313 319 320 316 317 316 315 314 313 317 321 319 318 320 323 323 322 320 317 316 314 313 316 318 319 319 320 318 317 318 314 310 312 315 317 318 317 316 315 314 314 313 314
314 313 312 312 311 310 310 309 310 311 311 313 312 311 311 311 311 313 314 315 310 305 310 311 310 312 312 313 313 311 312 312 312 314 314 313 313 313 314 314 316 315 315 320 318 313 315 318 318 318 315 314 314 315 318 318 318 319 319 320 319 318 319 315 314 315 313 314 317 317 317 318 318 317 316 313 312 314 317 317 318 318 315 313 313 314 312 311
313 313 312 311 310 310 310 309 310 310 312 313 310 312 316 310 307 310 311 311 308 305 310 311 311 315 313 311 312 311 314 315 314 315 314 313 313 313 315 316 315 316 316 316 317 314 315 318 316 314 313 313 313 317 321 321 323 323 319 318 319 319 319 315 313 314 312 314 318 319 319 319 317 317 315 313 314 314 313 314 314 314 313 312 312 312 311 310
314 313 311 311 310 310 309 310 311 310 311 312 309 312 316 309 308 309 308 310 308 307 312 312 314 321 316 313 313 312 313 314 315 315 314 313 314 315 316 315 315 317 316 315 317 317 318 318 315 311 312 314 313 315 320 320 321 323 321 320 319 318 319 318 315 314 312 312 317 319 318 318 316 317 318 312 309 311 311 311 311 310 311 311 310 311 310 310
314 312 311 311 310 310 310 310 311 310 311 310 309 312 313 310 309 309 309 311 310 309 310 309 315 322 318 313 313 313 312 313 314 314 313 314 315 314 315 315 316 317 315 316 316 317 317 312 308 309 312 316 316 314 317 318 316 318 325 330 325 320 321 318 314 316 315 312 314 316 314 323 326 324 326 317 309 311 310 311 313 311 309 309 310 311 309 310
313 312 311 310 310 310 310 311 311 310 311 310 310 311 312 312 309 308 311 311 311 311 308 308 313 318 315 312 313 313 313 314 315 314 312 313 315 313 313 313 315 316 315 315 314 316 315 308 307 311 311 316 318 316 318 321 317 315 324 332 330 328 325 319 315 317 319 315 312 311 312 330 336 329 328 322 318 319 313 313 318 316 311 310 312 312 309 310
313 312 311 310 310 311 311 312 312 310 311 311 311 311 312 312 309 309 312 312 312 311 309 310 311 312 313 313 314 314 313 314 313 312 312 312 312 312 313 313 313 315 315 313 314 316 313 308 312 316 314 316 316 316 317 319 320 315 317 321 326 330 327 322 318 315 318 314 308 310 314 322 327 325 325 321 321 324 317 316 320 317 314 313 312 311 309 310
313 311 311 310 310 311 311 312 311 310 313 313 310 311 312 312 309 309 312 311 310 311 310 309 307 310 313 311 313 313 313 315 312 312 313 312 311 310 313 314 312 314 314 314 315 315 312 312 313 316 318 318 316 316 315 316 321 317 315 318 326 330 326 327 325 320 321 314 313 320 319 314 317 319 321 317 316 321 319 318 320 316 317 319 317 315 313 311
313 311 311 310 310 312 312 311 310 310 313 312 310 311 312 312 308 309 313 310 309 310 309 308 307 311 313 309 312 313 313 315 315 313 311 310 310 311 316 317 316 318 313 313 316 313 313 317 316 316 321 319 318 319 315 316 322 319 313 317 323 326 328 333 333 328 320 310 318 327 314 311 321 323 322 315 312 318 321 319 318 317 319 324 324 322 320 316
312 311 310 310 310 312 312 312 310 310 311 310 311 312 311 310 307 310 312 308 308 310 308 308 309 312 313 310 312 314 314 315 316 314 311 310 309 310 314 315 317 318 312 315 321 316 313 315 315 316 318 317 318 317 314 319 323 316 309 314 318 321 326 328 330 329 318 313 325 326 312 311 319 326 327 316 311 319 322 318 317 319 321 323 325 325 325 324
312 311 310 310 311 312 314 312 310 311 311 311 312 311 309 310 309 308 308 308 311 310 307 308 310 313 314 311 311 314 315 316 316 315 314 314 312 310 311 310 315 320 318 321 324 317 312 311 312 314 315 315 315 314 313 317 316 311 315 320 318 323 327 327 328 324 315 322 329 320 314 313 311 323 328 315 312 317 318 318 316 319 323 322 323 323 324 327
311 310 310 310 311 313 315 312 311 313 313 311 312 309 308 313 313 309 306 310 314 310 307 309 310 313 314 312 313 314 316 317 315 315 315 314 313 313 311 311 316 322 322 322 321 317 314 313 314 314 313 314 317 316 312 311 312 315 324 324 317 323 327 327 330 320 315 328 325 313 313 313 310 321 321 314 316 315 315 318 316 317 322 324 326 326 326 331
310 310 310 311 312 313 315 313 312 314 313 311 311 309 310 312 311 309 308 310 312 311 310 310 310 313 314 312 315 315 317 319 315 315 318 316 314 314 313 315 319 320 317 319 319 318 318 318 315 314 312 314 321 323 315 314 318 319 321 322 320 322 320 324 331 321 319 325 316 310 313 312 313 318 315 315 319 317 316 317 317 318 320 323 326 325 326 329
311 311 311 312 312 313 315 314 313 315 313 310 310 312 316 313 309 310 310 309 310 310 312 313 312 313 313 313 315 316 316 317 315 315 317 317 315 313 314 317 319 319 318 320 320 318 320 322 317 315 315 314 317 321 318 318 319 315 316 320 322 322 316 319 323 315 315 319 311 309 312 314 317 315 313 316 314 313 313 313 315 316 318 321 320 321 327 326
311 311 311 312 312 313 316 316 315 316 312 308 308 311 315 313 310 311 310 311 313 312 312 315 313 312 313 314 315 315 315 314 314 315 315 316 315 315 316 315 315 322 324 321 320 318 319 321 319 318 317 315 314 318 322 322 317 314 315 315 318 326 324 320 321 319 320 320 313 309 312 320 319 310 311 316 313 312 313 314 314 313 315 317 315 319 325 322
312 311 312 312 313 314 316 317 317 316 311 308 308 310 310 309 312 312 309 312 316 315 313 313 313 313 313 314 313 314 316 316 314 315 316 316 315 315 315 312 313 322 323 317 316 318 316 317 318 316 314 315 316 317 319 320 317 315 313 312 314 323 325 317 313 318 319 316 315 312 315 323 317 308 311 313 312 313 313 313 314 316 319 318 319 324 323 319
313 313 313 313 314 315 315 317 317 313 309 308 309 310 309 311 316 315 310 313 316 313 312 313 313 314 313 313 314 313 315 317 316 315 316 315 315 315 314 313 314 316 317 316 318 318 316 315 315 315 313 314 315 315 315 317 316 314 312 316 317 317 323 317 308 309 312 311 315 315 316 321 314 310 315 313 312 314 314 313 313 318 322 318 318 322 321 321
314 315 315 315 316 315 315 317 314 310 309 308 308 310 310 311 316 317 314 314 314 311 312 313 312 314 313 313 316 314 314 317 316 315 316 315 315 315 314 315 314 313 314 317 318 319 320 317 314 316 316 312 310 313 316 315 314 316 318 318 313 310 317 319 312 316 316 314 318 315 314 318 315 314 319 315 311 314 316 314 313 315 317 316 317 319 320 320
313 314 315 315 316 315 316 314 311 311 311 308 309 313 314 312 314 320 318 311 311 313 314 314 312 313 313 312 314 313 314 316 315 315 316 314 316 317 314 314 314 312 312 313 312 315 321 319 314 314 316 314 312 315 316 312 309 316 320 315 313 316 318 315 313 319 318 313 321 320 312 312 313 318 322 315 313 318 316 312 312 312 313 316 318 319 320 321
311 314 314 314 315 316 316 312 310 312 311 308 309 311 316 318 316 319 318 310 311 315 313 315 315 313 312 312 313 313 313 315 314 315 315 314 315 315 313 313 314 312 310 311 312 312 317 319 314 312 313 315 316 316 317 317 311 311 311 309 315 323 322 316 313 316 316 313 318 322 318 316 317 319 321 314 315 320 315 311 312 312 314 317 319 320 321 324
309 314 314 311 314 315 314 312 312 313 311 309 310 308 314 320 316 314 315 313 314 314 314 318 316 312 313 312 312 312 313 314 314 314 314 313 313 313 312 312 314 312 310 311 315 314 313 315 314 313 312 315 319 318 316 317 314 312 312 311 314 316 315 315 314 314 318 319 319 319 319 323 322 317 318 315 314 314 314 315 315 315 316 316 317 321 321 322
309 313 312 310 313 313 312 314 315 314 314 313 314 313 314 317 315 315 316 315 315 314 317 321 316 314 317 313 311 313 314 315 314 313 314 313 312 312 312 311 313 312 310 310 314 316 313 312 316 317 316 317 319 315 313 316 315 313 313 313 314 314 315 316 314 312 314 316 319 317 315 321 322 313 311 313 310 309 313 316 316 316 317 316 317 320 322 323
309 312 310 310 312 310 311 316 315 314 316 316 314 313 314 316 316 317 317 316 317 317 316 319 320 319 318 313 311 314 314 315 315 314 316 314 312 313 311 311 312 311 311 312 312 315 317 319 322 322 320 318 315 310 308 313 315 313 313 315 315 314 315 317 317 315 312 309 313 315 313 321 324 311 308 313 311 309 311 313 315 317 317 318 318 318 323 325
307 309 309 308 310 310 312 317 314 313 314 313 311 312 313 316 318 317 316 315 317 318 317 320 320 317 315 314 313 313 313 314 314 314 316 313 311 314 313 311 312 311 311 313 312 313 315 319 320 319 322 322 316 312 310 313 314 313 316 317 316 314 318 324 323 318 315 312 313 313 313 322 329 316 312 316 314 310 310 312 316 319 318 319 319 319 323 324
305 307 308 308 309 309 311 314 314 314 311 310 313 313 312 315 317 316 318 319 318 318 320 323 318 314 318 318 314 313 313 313 313 313 315 314 311 314 316 313 311 312 312 313 313 312 312 316 317 317 321 322 319 317 317 317 315 317 321 318 314 316 318 318 316 313 314 317 317 315 315 322 327 319 313 315 313 312 312 312 315 319 320 319 320 321 322 319
305 305 306 307 308 309 309 310 312 312 310 311 314 314 313 314 314 315 318 320 319 319 320 320 316 318 323 318 313 313 312 314 315 313 314 316 312 313 317 315 311 311 315 317 315 312 314 317 316 315 316 316 316 317 318 319 316 317 322 317 312 315 315 313 316 315 315 317 316 315 316 318 318 314 311 313 313 313 313 313 314 317 318 318 318 320 318 315
305 306 306 307 308 308 307 307 308 309 310 312 314 313 315 315 313 314 316 316 317 318 318 318 317 320 322 316 313 315 312 313 317 314 314 316 315 314 315 315 313 312 318 320 315 315 320 319 313 313 314 312 313 317 318 321 319 317 319 316 313 314 314 316 321 317 315 316 314 315 315 314 314 313 311 313 315 315 314 314 314 315 317 318 318 318 315 311
305 307 306 307 308 307 306 306 306 307 309 312 313 312 313 315 315 315 315 313 315 318 318 317 317 319 320 316 315 315 313 313 316 316 316 316 316 314 312 313 314 314 318 316 312 316 322 317 312 314 314 311 315 322 321 320 320 318 318 317 315 314 315 317 318 314 315 316 314 314 314 312 313 315 315 315 314 315 314 314 315 316 317 319 318 318 319 315
303 304 304 304 307 308 307 306 305 306 308 310 312 312 312 314 315 316 315 313 315 317 317 317 318 319 319 317 316 317 316 314 315 318 319 318 318 316 313 313 312 313 317 314 312 317 318 315 314 314 313 312 315 320 320 319 319 318 318 318 316 314 315 315 314 313 315 315 312 313 315 313 312 314 317 315 313 314 313 313 314 314 315 318 319 320 323 320
301 303 302 302 304 306 307 307 305 306 307 308 310 311 312 313 314 314 314 315 316 316 316 318 319 319 319 318 317 319 318 314 315 319 318 317 319 318 317 318 314 312 316 315 313 315 316 318 319 313 311 313 314 315 318 319 318 317 316 316 315 314 314 314 314 313 313 314 313 314 317 315 312 314 316 313 311 313 314 314 315 315 317 320 321 321 321 317
301 303 302 302 304 304 305 307 307 307 308 308 309 310 311 312 313 313 314 315 318 317 315 317 318 318 319 319 319 320 319 315 316 319 318 317 318 319 319 321 318 314 314 314 313 311 312 319 320 313 312 315 315 316 318 317 316 316 316 315 314 314 314 313 314 314 313 313 313 313 316 315 312 315 316 313 312 313 315 316 317 318 321 322 320 320 320 314
299 299 299 302 304 303 304 307 308 308 308 308 309 310 310 310 312 313 313 314 316 317 315 316 318 318 317 317 319 319 318 318 319 319 318 318 318 319 318 318 319 317 314 314 316 314 312 317 319 315 314 316 316 316 316 313 312 314 315 316 315 314 314 313 313 313 313 314 314 314 315 313 312 314 315 315 316 315 314 318 320 319 320 322 322 321 316 311
298 298 299 303 304 303 303 306 308 309 309 309 309 309 309 310 310 312 313 313 314 316 315 316 318 318 317 317 318 318 317 318 318 316 316 317 318 319 318 317 318 318 316 315 318 319 315 318 321 318 316 317 315 314 315 314 313 314 314 314 314 313 313 313 313 313 313 314 315 314 313 313 315 315 314 316 317 316 316 320 322 320 318 318 320 317 312 309
Wind_Speed
23 21 21 19 18 18 16 15 15 15 15 15 15 14 13 12 12 14 17 18 17 16 16 15 14 13 12 9 8 8 7 7 6 9 9 8 14 12 8 15 12 5 6 7 8 7 4 3 3 5 6 4 3 1 2 3 3 4 3 4 2 4 4 6 7 7 4 3 5 5 5 7 4 3 1 1 4 3 1 3 3 3 3 3 4 4 5 19
21 20 21 19 17 17 16 15 15 15 15 14 14 13 12 11 11 14 17 18 17 16 16 15 14 13 11 9 8 8 6 5 4 7 14 11 10 13 10 13 14 7 6 8 8 8 6 2 3 6 5 3 2 2 2 1 3 3 3 3 3 6 5 5 7 6 2 2 6 5 4 4 5 4 3 2 1 2 2 3 4 5 5 3 4 3 14 22
21 20 23 20 16 16 16 15 15 15 14 14 13 12 12 12 12 14 16 17 17 15 15 14 13 13 11 10 8 7 6 4 1 7 16 14 10 13 11 11 12 8 8 8 8 7 7 7 7 6 5 3 1 2 2 1 1 2 4 3 5 6 4 4 6 6 4 3 7 5 3 2 3 2 2 3 2 1 5 5 1 4 8 4 2 8 19 21
20 20 23 22 17 16 16 16 15 14 14 13 12 11 12 13 12 14 15 16 16 15 15 13 13 13 11 10 8 8 7 3 2 7 13 15 12 13 11 9 10 9 9 9 8 7 8 11 8 5 5 3 4 3 2 1 0 2 4 4 5 3 2 3 6 6 4 5 6 5 4 2 3 2 2 6 5 3 6 7 8 9 9 5 3 9 18 19
21 19 21 23 19 16 16 16 15 14 13 13 12 10 10 11 11 13 14 15 15 15 14 13 13 12 11 10 9 9 7 2 3 6 12 16 13 12 11 10 10 10 10 10 10 10 9 9 7 6 4 2 3 3 0 2 1 2 1 4 4 3 2 1 3 3 3 4 5 6 6 4 2 1 3 8 7 6 7 7 10 10 9 9 9 12 14 15
22 19 20 22 20 17 17 16 14 13 13 12 12 10 9 9 10 12 14 14 14 14 13 13 13 13 11 10 10 9 6 1 2 5 13 16 13 11 11 10 10 11 11 12 11 10 7 6 6 4 3 2 2 2 1 3 2 2 1 1 3 3 1 2 2 1 3 6 7 6 4 3 4 1 2 7 8 7 5 4 6 7 7 10 12 14 12 12
22 20 20 21 20 18 17 17 15 14 13 12 10 9 8 8 10 12 13 13 13 13 13 13 13 13 11 9 8 5 2 3 2 7 12 14 13 11 12 11 10 11 12 13 11 7 6 6 5 4 5 3 2 2 1 2 4 4 1 1 2 2 1 2 2 1 2 5 5 4 3 3 5 3 1 4 11 7 3 3 3 5 9 11 11 12 13 15
22 20 20 22 22 19 18 18 16 14 13 12 10 9 8 8 9 11 12 12 13 13 13 13 13 12 11 10 7 2 2 3 4 9 11 13 13 12 12 11 11 12 12 13 11 8 6 7 6 4 4 1 4 3 1 2 4 3 3 1 3 1 3 3 2 4 3 2 1 3 4 1 4 4 1 7 11 7 3 2 3 6 9 9 10 11 11 13
21 20 21 23 23 20 19 18 16 15 13 11 11 8 8 8 9 10 11 12 12 13 13 13 13 12 12 9 5 2 3 3 7 10 10 12 12 12 12 10 12 11 10 10 10 11 7 5 5 5 4 3 5 4 2 3 1 2 4 2 3 2 5 3 3 5 3 1 2 4 2 4 2 1 3 8 8 6 1 5 5 7 7 7 9 10 11 11
22 21 22 21 22 21 19 19 17 14 13 12 11 9 8 8 9 10 11 12 12 12 12 14 13 12 12 5 5 3 3 3 9 9 10 11 11 13 11 9 12 11 10 7 7 11 7 6 7 5 5 3 4 3 2 4 3 3 6 5 5 2 4 3 3 5 3 1 2 3 2 4 1 1 4 5 5 4 3 5 4 7 7 9 7 8 11 12
23 21 21 20 21 22 20 20 18 14 13 13 10 9 8 7 9 10 10 11 12 12 12 14 12 13 10 4 5 4 3 4 8 8 9 10 9 11 9 9 11 10 10 6 7 10 5 8 11 6 2 3 4 2 1 3 4 4 7 6 6 5 3 5 4 4 3 2 3 4 2 5 2 1 6 5 6 2 5 4 4 6 6 7 7 7 8 11
22 21 20 20 21 22 21 21 18 14 13 12 10 9 7 7 9 10 11 12 12 12 12 13 13 13 7 3 3 4 2 5 7 7 9 9 9 9 8 9 8 8 9 6 7 9 5 11 14 7 1 4 5 2 2 2 5 3 4 5 5 7 4 4 3 3 3 2 2 2 1 5 3 5 9 5 5 2 5 3 3 6 5 4 6 5 6 10
22 20 19 20 22 23 23 22 17 13 13 11 9 9 7 7 9 10 11 12 12 13 13 13 13 12 6 1 3 4 3 5 6 7 8 9 9 9 8 8 8 6 7 7 9 8 7 12 12 6 2 6 3 2 4 4 3 1 3 5 2 6 3 4 2 3 1 1 4 1 1 7 7 9 9 5 4 3 2 5 5 5 5 4 5 5 6 9
21 20 19 20 23 23 23 21 16 14 13 10 9 9 7 8 10 11 12 12 13 13 13 13 13 10 4 2 3 3 4 5 7 7 8 9 10 10 8 8 8 6 6 7 9 9 8 11 10 7 3 4 3 2 4 6 4 2 2 2 2 1 4 6 3 0 3 0 4 5 2 6 8 9 7 6 3 3 5 7 6 5 5 5 5 5 7 9
22 20 19 21 22 22 21 19 15 14 13 11 10 9 8 8 10 11 12 13 12 12 12 13 12 7 2 2 2 3 5 5 7 8 8 11 11 9 7 8 8 7 7 7 10 10 9 10 9 6 1 2 4 5 4 4 4 3 2 1 3 3 5 7 2 1 3 0 5 6 2 7 7 9 7 5 3 4 7 7 6 6 6 6 5 6 7 8
22 20 20 20 21 20 19 17 14 14 12 11 10 9 9 8 9 11 13 12 12 12 11 10 10 6 3 1 0 2 4 4 7 8 8 11 10 8 10 12 10 9 10 10 12 11 8 8 5 2 3 3 4 6 4 3 3 4 2 2 2 2 3 4 1 2 1 1 4 3 3 4 4 6 7 5 5 3 4 7 7 7 7 6 6 6 7 7
22 21 20 20 20 19 18 16 14 14 13 12 11 10 10 9 10 12 12 13 13 11 10 9 7 3 1 1 1 2 3 4 8 9 8 8 8 11 13 9 7 9 10 10 10 7 6 5 2 0 3 3 3 6 5 1 3 2 3 2 3 3 2 2 2 3 3 3 0 2 2 6 6 7 9 6 2 2 4 7 7 6 6 6 6 6 7 8
23 21 20 19 18 18 18 17 16 15 13 13 13 13 14 13 12 13 15 16 14 10 6 5 5 2 3 3 3 3 3 6 10 9 8 8 9 12 10 6 6 8 8 6 4 3 4 4 2 2 3 2 2 5 5 5 5 5 3 3 2 2 3 3 3 2 3 3 2 1 3 9 11 10 10 6 2 2 7 7 7 7 7 7 6 6 7 7
24 21 20 18 16 17 18 18 16 15 15 16 18 19 18 15 13 12 11 10 7 6 3 4 4 3 4 4 3 4 6 10 10 8 7 8 9 9 8 7 7 7 5 3 2 2 2 3 4 3 3 3 6 6 7 8 8 9 6 5 5 3 4 5 4 4 1 3 3 4 5 8 10 11 11 6 2 2 7 7 7 7 7 7 6 7 7 8
24 22 20 17 16 17 17 18 17 16 18 21 22 19 13 9 7 4 2 1 2 3 2 3 5 3 0 0 4 9 10 8 5 4 7 8 9 9 6 5 5 6 4 4 2 1 3 4 3 5 7 8 7 6 6 5 6 7 6 5 4 4 3 4 3 5 1 3 3 3 4 8 10 11 13 9 3 3 9 9 8 8 7 8 7 8 8 9
24 22 20 17 17 16 17 19 18 18 20 24 21 10 4 7 4 3 3 1 2 2 0 2 4 3 1 2 6 9 7 4 3 3 6 6 8 8 1 3 5 3 1 2 3 2 4 5 8 7 7 7 6 6 7 6 6 6 6 5 2 3 2 2 1 4 3 1 3 2 3 9 10 11 12 9 6 7 9 9 10 10 9 8 8 10 10 9
24 22 20 18 17 17 18 18 18 20 21 21 14 2 2 6 5 7 7 2 2 0 2 1 4 3 2 2 5 4 4 4 3 1 4 5 4 5 1 3 7 4 1 2 3 2 2 5 8 6 5 8 7 6 8 7 6 5 4 5 2 2 2 3 3 4 5 0 3 4 5 9 10 11 11 10 8 9 8 8 9 8 9 9 8 10 9 8
24 22 20 17 17 18 18 18 19 20 20 18 10 2 3 6 9 13 8 3 1 2 3 2 4 3 3 2 4 2 4 4 4 3 3 5 3 3 4 5 6 5 2 4 5 6 4 6 6 6 8 10 6 4 8 8 5 4 4 5 3 2 1 1 2 4 4 2 1 2 4 8 8 7 9 8 6 7 7 7 9 8 10 11 9 8 8 9
25 22 20 19 19 19 19 20 18 16 18 17 11 6 7 9 14 15 5 3 2 1 1 1 2 4 3 2 4 4 3 2 4 4 4 6 4 3 5 5 5 5 4 6 7 7 5 4 2 8 7 8 7 3 6 7 2 1 3 6 3 3 4 3 1 1 3 3 3 3 4 6 5 5 7 5 4 6 5 6 8 8 8 9 8 8 9 9
25 22 20 20 19 20 21 19 15 15 16 13 11 7 8 10 16 13 3 3 1 2 1 1 1 3 4 3 3 4 3 1 1 2 3 6 6 4 3 2 3 4 4 5 7 5 4 2 4 9 5 6 8 4 5 7 3 2 3 6 7 7 6 2 2 4 4 4 3 4 3 5 5 5 7 5 7 8 5 5 8 8 6 6 7 9 8 7
25 22 20 21 21 24 21 12 13 16 12 9 12 10 7 10 15 10 4 4 1 1 1 2 1 4 6 3 1 3 4 1 1 1 3 5 4 4 4 1 2 3 5 5 4 3 1 2 4 7 6 6 7 5 6 7 6 2 4 5 6 7 8 6 5 4 2 1 2 3 3 4 7 5 7 5 8 10 8 7 8 7 7 6 6 7 7 7
25 23 22 22 24 27 16 6 15 17 7 8 14 12 8 11 13 6 4 4 3 2 4 1 1 5 7 1 2 6 3 3 2 3 3 3 1 3 4 3 2 2 3 4 2 2 2 3 4 6 6 6 6 5 6 8 8 3 3 5 8 8 8 7 6 4 2 2 3 4 4 2 5 6 7 6 7 10 9 8 9 8 8 7 6 7 6 7
25 24 22 22 28 27 10 7 20 15 5 10 16 13 9 12 10 3 5 2 2 3 4 2 1 4 3 2 3 5 2 2 5 1 2 4 1 4 3 5 5 4 1 4 4 3 2 5 5 6 5 4 4 4 6 9 6 4 3 6 7 7 7 5 6 4 0 1 3 5 2 1 6 7 5 5 4 8 9 8 9 8 8 8 7 6 6 5
25 25 22 23 30 23 6 8 21 13 8 16 19 15 13 12 7 4 4 2 1 2 1 2 3 2 1 2 3 3 2 2 2 2 2 4 2 4 4 5 7 8 3 3 6 2 1 3 6 6 5 4 3 1 2 5 3 4 6 7 6 6 6 5 5 4 3 2 4 5 2 0 5 7 4 3 2 7 8 7 7 7 7 6 6 7 6 5
26 24 24 27 30 23 8 9 18 13 11 18 19 17 15 9 4 5 2 4 2 2 1 2 4 2 5 6 1 3 2 2 1 1 2 2 3 6 3 3 6 7 4 6 4 1 2 1 1 3 3 4 4 3 2 2 4 7 6 7 7 6 5 4 3 3 4 2 6 5 2 0 3 6 4 2 4 6 4 2 4 6 7 6 6 5 5 5
27 24 27 31 29 23 10 8 16 13 13 19 21 17 11 4 2 5 5 3 3 2 1 2 3 4 10 11 4 0 2 2 1 3 3 1 3 4 2 2 4 5 3 4 2 4 4 2 0 1 2 4 6 5 4 4 4 6 4 5 5 4 4 4 5 4 2 4 6 4 2 1 3 5 3 3 6 6 4 3 2 6 8 7 7 6 6 5
27 25 30 30 26 21 8 7 16 14 15 22 19 10 6 4 2 4 4 2 2 3 4 4 4 6 12 10 5 4 4 2 1 4 5 3 3 3 3 4 4 3 1 3 1 3 2 0 1 1 1 4 6 6 4 5 5 5 5 6 5 2 3 2 3 1 2 5 4 3 1 2 5 7 7 9 8 7 6 6 5 5 7 8 8 7 7 6
27 26 29 27 23 19 8 7 15 14 18 21 12 5 5 4 7 7 4 2 2 2 3 4 2 6 11 9 5 4 3 2 3 3 3 4 5 4 2 2 5 5 3 5 4 2 1 4 2 2 0 2 5 5 3 1 0 4 5 5 5 3 2 2 4 2 3 4 3 3 2 2 4 6 9 11 9 7 6 7 7 6 6 8 8 7 7 7
28 27 28 25 21 17 9 8 13 14 19 16 6 5 5 5 7 6 5 4 1 2 2 4 6 7 8 6 5 7 4 1 4 4 2 4 5 5 4 4 4 5 4 4 3 5 4 4 3 4 2 3 4 4 6 6 3 2 3 5 5 5 4 4 4 3 4 3 3 4 2 3 3 2 6 8 7 6 5 6 5 5 6 7 7 6 6 6
28 27 26 22 20 16 10 8 11 15 16 9 4 7 8 9 6 5 6 5 1 2 3 3 8 8 4 2 1 5 3 2 4 4 4 5 6 7 6 6 6 4 6 5 3 3 4 4 4 1 2 4 5 3 4 7 3 1 2 5 3 4 5 3 3 5 3 0 2 2 3 4 3 5 6 4 6 6 5 5 4 4 6 5 5 6 5 4
27 27 24 20 19 16 12 9 11 16 13 6 5 8 8 7 4 4 6 5 4 6 7 4 4 6 4 2 1 5 1 3 5 4 3 4 4 6 7 5 6 6 5 6 3 2 3 2 4 3 2 2 3 2 2 3 3 2 2 3 4 4 8 6 1 1 3 1 3 1 3 5 4 6 7 3 5 7 5 4 3 5 6 4 4 5 5 4
23 21 17 14 16 17 13 11 13 15 9 5 8 9 4 2 3 4 4 5 6 8 10 5 2 4 6 3 5 7 3 3 4 4 4 3 2 6 8 5 6 9 7 4 2 3 5 1 3 2 2 1 1 3 4 3 3 5 3 5 4 3 5 5 2 3 4 2 4 1 4 5 1 3 7 4 2 6 5 3 3 2 2 4 2 4 5 4
16 12 8 9 16 17 13 12 14 10 4 3 10 9 2 2 2 3 3 6 8 6 6 6 3 3 7 6 6 8 6 5 6 5 4 4 4 6 10 5 4 9 8 3 1 2 5 3 3 2 2 2 3 3 3 4 4 4 4 3 4 3 2 2 2 1 0 2 4 4 3 4 4 5 5 2 7 8 6 2 1 3 4 4 2 2 4 4
10 7 3 6 16 18 15 15 11 6 4 5 11 8 1 1 1 2 3 5 7 6 5 5 2 2 5 6 6 7 6 6 8 6 4 5 5 5 10 7 3 7 8 5 3 3 4 4 2 2 1 1 3 1 5 2 3 4 2 2 3 3 4 2 3 4 3 3 3 4 3 3 6 6 6 8 10 8 5 2 2 5 5 4 4 3 5 7
4 4 1 3 14 20 18 14 7 4 5 6 7 4 0 1 1 2 2 2 4 3 4 5 3 4 4 3 4 5 4 4 8 7 4 5 5 4 8 8 5 7 6 5 4 3 3 3 3 2 3 1 2 3 6 7 3 3 3 4 2 1 3 2 0 3 4 4 3 2 3 5 6 4 7 10 7 6 7 6 6 6 6 6 4 2 4 7
2 2 2 2 13 19 15 9 4 4 5 2 1 2 1 1 2 1 3 2 2 1 3 5 4 5 5 4 3 5 4 3 5 5 3 5 6 4 6 7 8 8 6 4 3 4 2 3 4 2 0 3 3 3 3 5 5 6 5 6 6 4 4 3 2 1 3 3 4 3 3 7 6 3 5 7 5 7 8 8 8 7 7 6 3 1 1 3
2 3 1 1 10 16 10 5 2 1 2 1 2 2 1 1 3 1 1 3 3 2 2 3 3 3 5 5 4 6 6 4 5 6 4 6 8 5 4 5 9 11 8 4 3 3 3 4 4 2 3 4 2 2 2 3 2 4 3 4 6 4 5 6 6 4 2 1 2 3 2 7 6 3 5 6 5 5 6 8 9 7 7 6 3 2 4 4
1 1 2 4 7 11 6 4 3 1 1 2 1 1 1 1 2 2 1 1 2 2 2 1 2 2 3 3 4 7 8 5 6 7 5 5 6 4 4 7 10 11 8 5 3 3 2 4 4 0 3 3 4 4 2 2 2 2 3 3 5 4 3 5 5 4 4 3 3 3 2 7 6 4 4 4 4 3 5 7 8 8 6 4 2 3 5 4
1 0 3 5 3 6 3 3 5 4 3 1 3 2 1 1 2 3 2 1 1 2 2 2 2 2 2 3 5 7 9 5 5 8 4 3 4 1 2 8 10 10 7 5 6 6 3 3 4 3 1 3 4 3 3 3 1 4 4 3 5 4 6 5 2 4 2 5 7 5 4 7 5 4 2 2 1 2 5 5 5 7 6 3 3 5 5 4
1 1 2 5 4 2 1 1 2 3 4 3 4 3 1 1 1 1 3 3 1 3 3 1 1 3 3 3 4 4 8 5 3 6 3 2 3 2 2 4 8 8 4 1 5 7 5 4 5 6 6 6 6 5 4 3 3 2 2 4 5 6 8 5 3 4 3 5 6 6 6 6 5 3 4 3 2 5 5 5 4 3 4 4 4 4 4 2
1 1 0 1 3 1 1 1 2 2 3 5 4 3 3 2 1 1 2 2 1 2 2 1 2 4 3 3 5 4 8 3 2 3 5 4 3 2 3 1 3 4 1 4 7 7 3 2 5 8 10 11 10 7 4 6 6 4 4 6 7 7 9 6 4 4 6 3 4 7 8 7 6 3 2 4 6 7 7 7 7 5 4 5 5 5 4 4
1 1 2 2 1 2 2 2 3 2 2 4 4 4 5 4 1 1 0 0 2 2 3 2 2 3 4 6 6 5 7 4 2 3 5 4 2 1 3 2 2 1 2 4 5 4 4 3 7 9 12 10 6 5 4 7 8 9 9 9 10 10 10 9 8 11 6 5 6 11 7 8 9 6 7 9 8 8 8 9 8 5 5 6 5 2 1 2
1 0 0 1 0 3 2 3 6 5 3 3 2 4 8 6 4 3 1 1 0 1 2 0 1 3 6 7 6 5 5 4 3 3 2 2 3 1 2 3 1 2 2 2 0 3 5 6 6 7 10 9 4 4 6 7 8 9 11 13 13 12 13 13 14 15 8 6 13 10 9 12 12 8 10 11 11 11 10 9 6 3 4 5 1 3 4 5
1 1 1 2 1 1 0 3 8 7 5 5 2 2 8 10 9 5 2 2 0 1 2 3 3 3 4 4 4 5 6 5 5 5 3 3 3 3 2 1 1 2 2 3 1 2 4 4 4 7 8 10 5 5 5 7 7 6 9 13 14 15 17 17 18 19 14 13 16 7 9 14 12 9 11 10 9 8 5 3 3 3 5 4 3 5 4 4
1 0 0 2 2 1 2 2 8 6 4 6 4 2 5 9 11 6 3 4 4 2 2 4 4 4 4 4 5 4 5 4 3 6 6 5 3 3 3 4 3 1 1 4 2 2 3 3 3 6 4 8 5 6 6 6 7 6 6 9 10 12 15 16 18 17 12 12 14 7 6 12 7 8 9 5 5 4 2 3 5 4 5 4 5 5 4 5
2 1 1 2 1 0 1 0 5 5 3 4 5 4 5 7 8 6 2 2 5 5 5 7 6 3 3 4 4 4 5 4 4 4 7 6 5 4 2 3 6 5 4 4 3 2 4 2 2 5 4 6 3 7 7 4 3 2 4 7 11 12 13 15 14 11 9 11 13 9 10 12 5 8 6 2 6 7 6 7 6 4 5 6 7 6 5 6
2 2 1 3 1 1 0 0 2 4 3 4 5 5 5 6 5 5 1 1 2 4 6 8 8 4 3 5 7 6 6 5 4 4 4 4 4 3 2 3 6 7 6 5 2 2 5 4 2 4 6 4 2 5 7 6 4 4 8 12 16 15 13 11 8 9 12 12 10 10 12 10 5 8 7 4 7 9 9 7 5 5 6 6 6 7 6 6
Wind_Direction
180 176 176 174 175 176 176 179 181 184 188 190 191 189 187 186 186 186 187 189 190 192 192 190 189 188 191 195 202 204 204 204 196 184 195 226 221 222 222 204 204 193 177 172 168 163 127 77 99 104 104 78 10 340 50 26 70 60 82 102 148 176 199 185 180 193 171 198 206 213 193 156 185 221 180 57 47 61 56 321 311 299 254 222 257 289 172 164
175 171 176 173 173 175 176 178 179 183 187 189 191 188 185 183 186 185 185 188 189 190 189 186 185 185 188 192 201 203 193 188 186 210 218 224 219 213 207 198 204 208 179 170 173 165 135 119 126 96 70 48 348 3 46 4 74 84 112 110 203 198 205 193 176 188 177 182 175 182 194 171 189 174 137 180 298 35 135 274 335 321 269 279 312 184 161 164
176 175 181 180 176 175 176 178 178 183 187 189 190 184 186 188 187 186 185 187 189 189 187 184 182 183 185 188 195 193 170 142 168 246 231 219 209 203 192 189 199 199 181 170 172 168 154 156 139 102 57 56 350 16 66 11 53 152 121 114 232 209 219 219 183 191 205 168 149 165 177 173 230 163 140 184 180 158 195 222 252 268 251 256 306 154 156 163
177 179 184 186 182 175 175 177 178 183 185 187 188 185 194 196 189 187 185 186 189 188 186 182 181 183 185 184 186 179 150 103 245 230 216 208 200 195 189 183 185 182 176 160 152 147 138 135 116 82 68 60 340 16 109 317 309 152 121 171 227 190 184 214 194 204 204 167 145 147 133 146 238 180 147 149 136 265 243 222 202 213 213 191 205 163 158 164
176 177 181 186 184 176 175 177 178 182 185 187 189 191 197 196 190 188 187 186 188 187 184 180 181 184 184 183 182 174 140 84 247 191 183 189 186 186 184 176 174 171 166 154 142 129 121 118 90 64 68 76 4 37 191 295 85 116 158 188 196 154 109 242 213 202 163 139 124 128 148 174 175 133 156 153 165 236 235 223 212 207 188 168 171 167 164 168
175 174 176 182 181 177 177 176 178 183 189 192 189 192 193 190 190 188 187 186 185 185 182 178 180 182 184 184 179 168 143 150 252 160 169 175 175 177 172 170 168 166 163 152 141 126 107 82 80 94 67 69 113 111 216 303 42 134 273 251 192 190 93 349 295 251 141 129 142 154 173 148 119 186 189 174 206 224 216 231 228 211 178 160 156 160 167 176
176 176 177 181 179 177 179 177 180 185 188 190 188 188 187 187 190 188 186 183 182 181 179 177 178 181 182 172 162 149 156 255 218 158 166 167 172 171 164 170 165 168 169 150 135 122 103 88 109 140 89 77 158 141 187 336 33 99 163 307 171 179 35 326 315 270 151 145 178 175 129 122 160 191 90 218 235 234 241 289 240 179 153 150 152 166 178 183
180 182 182 183 182 178 179 178 180 187 186 185 185 183 186 189 189 188 183 180 179 177 177 176 175 179 175 157 140 104 278 248 169 160 165 163 169 166 163 169 165 172 171 159 151 137 123 118 144 149 100 168 174 138 157 79 31 88 161 211 121 107 324 323 53 70 95 131 174 117 109 234 204 164 106 244 250 263 274 36 93 135 140 157 168 179 185 188
184 184 184 184 182 179 179 179 180 186 184 179 179 180 185 189 189 187 180 177 175 174 174 172 175 177 171 155 119 135 231 201 161 163 163 163 166 165 164 166 169 174 167 169 164 148 146 151 175 177 147 183 154 139 170 137 235 176 143 147 96 29 325 344 76 45 38 69 40 106 72 314 214 152 274 251 263 289 328 89 105 130 148 182 182 187 189 192
185 183 185 184 182 178 177 180 183 183 179 176 175 175 179 184 188 184 177 174 173 173 172 170 173 173 171 154 106 168 241 165 162 166 162 164 164 163 165 166 172 174 162 161 163 154 158 176 176 162 136 138 130 126 174 160 184 144 117 105 75 21 331 17 78 16 6 68 28 143 187 311 312 336 262 266 309 308 100 101 131 149 175 196 192 197 196 200
184 183 183 184 180 176 176 182 185 180 177 176 174 175 177 182 184 179 172 169 170 171 172 170 170 170 169 136 126 197 252 159 168 166 161 165 162 164 165 168 172 174 165 147 174 173 168 172 154 123 124 160 130 85 252 172 110 116 126 100 20 0 1 25 66 10 360 94 35 126 156 313 348 287 233 260 324 300 138 128 163 175 201 206 203 210 205 214
184 183 182 183 180 176 180 186 183 176 177 175 174 176 175 183 181 173 166 163 169 171 171 170 170 170 156 91 170 215 211 163 171 164 165 162 158 160 156 163 168 177 177 160 185 184 166 165 141 108 222 155 131 117 182 115 85 123 123 112 351 2 18 356 33 339 349 100 350 97 69 302 244 236 243 262 338 37 129 165 208 207 227 228 222 225 218 226
183 181 182 182 180 180 186 189 182 174 178 175 172 175 176 183 176 168 163 161 167 169 168 169 170 166 146 90 223 212 180 171 172 167 167 162 157 155 150 161 163 173 190 181 179 168 155 163 138 112 129 113 130 176 124 63 64 146 62 107 26 12 353 320 358 324 50 93 331 107 232 283 254 254 260 285 341 53 144 222 232 228 238 241 236 235 234 233
181 181 182 180 181 185 188 190 183 175 180 178 168 171 178 178 172 167 160 160 165 165 167 167 165 158 142 225 227 203 192 175 171 170 166 165 154 143 144 157 160 162 177 175 166 150 151 156 120 100 103 94 139 120 61 22 25 90 53 65 65 115 257 300 330 28 137 57 4 102 182 272 266 272 275 305 325 175 225 251 244 243 244 240 236 235 243 239
182 181 180 180 184 188 191 193 188 179 180 176 164 168 177 175 171 165 156 157 159 161 162 159 161 149 107 269 254 194 192 171 170 175 169 167 152 137 141 145 142 136 133 142 144 136 141 137 102 90 96 22 94 90 44 13 22 42 109 314 353 167 254 308 323 141 151 243 33 96 203 272 268 270 274 326 16 173 230 260 262 260 254 246 241 235 243 248
183 182 180 180 184 189 191 193 189 181 177 170 166 167 166 162 161 158 153 149 146 152 153 153 164 149 113 226 212 164 185 171 173 174 168 168 160 142 134 128 119 116 117 115 118 116 108 100 76 84 116 66 89 99 63 32 360 359 107 189 261 173 265 315 331 323 114 136 16 76 209 270 282 269 278 328 43 102 244 269 273 262 256 248 238 236 241 253
183 183 181 180 184 188 186 185 181 176 173 169 164 154 143 139 147 148 138 129 126 133 142 151 161 143 105 133 116 195 192 166 170 168 163 168 162 145 133 114 100 108 108 104 108 99 60 55 58 28 68 71 107 101 85 1 259 291 53 122 224 189 211 287 284 318 32 112 255 29 222 251 272 278 285 298 26 26 284 275 279 269 263 253 237 239 239 245
183 182 181 181 183 182 178 178 175 172 169 160 146 131 121 118 126 131 126 120 109 102 116 145 138 136 235 200 174 195 159 148 156 154 152 153 152 146 132 110 110 106 92 79 80 68 32 30 71 106 45 63 139 122 148 210 200 184 166 148 214 220 212 252 248 270 22 85 191 351 269 263 275 283 287 276 185 267 272 272 283 278 271 265 252 245 241 242
182 182 181 181 178 173 173 173 170 170 162 145 131 119 109 102 104 115 124 121 111 107 134 173 152 160 215 209 160 113 116 135 143 142 136 137 144 133 105 101 106 96 95 93 63 70 75 56 71 131 152 173 188 174 178 198 174 167 175 148 156 185 230 242 246 269 343 110 217 233 241 269 279 284 288 279 143 229 273 278 277 271 267 266 257 250 247 243
182 182 180 177 173 171 171 169 167 168 156 143 136 123 111 109 100 106 146 194 194 158 150 179 164 140 281 236 123 116 114 117 121 131 135 141 143 120 74 61 72 65 106 146 143 98 93 123 180 190 188 194 190 162 142 158 142 137 133 116 151 178 235 249 259 301 326 135 247 242 250 274 272 275 278 280 322 301 276 274 268 262 260 258 254 254 249 243
182 182 178 176 174 172 171 168 166 167 159 152 148 135 142 160 138 159 184 273 242 166 57 209 141 110 66 130 145 137 115 81 52 96 140 150 144 137 53 25 105 89 294 155 131 79 92 161 211 209 189 173 149 123 108 100 83 93 133 137 156 193 224 263 250 314 345 147 265 1 327 276 266 270 271 276 297 276 255 255 261 260 257 258 256 257 254 254
182 182 179 176 177 174 172 168 166 169 168 163 163 179 204 167 126 143 146 115 242 130 44 118 105 73 18 136 168 155 83 88 83 36 158 141 123 159 170 69 131 160 289 121 112 105 144 213 222 197 147 110 90 90 93 88 85 83 113 134 155 219 232 289 298 332 2 90 269 355 343 281 268 268 267 264 264 259 250 241 248 257 259 258 251 255 263 270
183 182 176 174 175 172 168 165 165 172 174 174 183 214 166 154 134 141 133 88 203 345 37 98 123 101 42 126 192 150 85 132 161 226 195 138 113 162 134 109 137 140 149 173 153 149 186 248 230 168 135 114 88 67 90 85 77 88 106 135 180 247 169 233 282 332 5 73 254 337 319 286 284 291 281 267 258 270 274 257 251 247 247 255 259 262 266 266
182 179 173 170 170 168 164 163 168 179 181 183 196 180 139 144 151 150 121 62 139 317 11 94 135 147 127 147 186 150 106 140 159 184 185 143 132 140 139 138 131 131 179 185 157 161 202 276 174 136 129 126 120 102 117 113 70 64 145 144 163 200 180 198 241 353 0 26 43 20 329 296 309 323 293 295 324 295 296 304 279 256 248 263 276 272 259 256
182 176 169 167 167 164 160 160 175 186 183 190 201 175 135 148 165 163 105 72 143 328 316 196 65 181 168 122 164 165 126 112 153 184 176 147 138 129 137 132 128 165 190 146 136 173 229 290 123 127 116 116 127 160 178 149 139 266 214 179 173 173 164 145 90 77 37 4 4 26 351 290 317 318 271 304 342 306 312 324 286 280 289 276 271 271 264 258
180 173 167 168 165 160 157 163 189 183 175 200 199 173 154 161 171 175 95 65 248 281 163 168 109 179 174 127 149 141 112 203 294 56 118 138 134 111 130 113 65 171 175 133 133 178 214 16 83 123 129 122 130 179 204 153 132 208 231 179 151 135 129 130 121 101 102 233 332 48 133 259 316 307 269 310 332 305 308 307 290 301 307 287 271 274 273 266
177 171 169 170 165 162 160 167 177 172 168 206 191 173 171 166 169 176 72 52 262 178 133 171 350 166 171 186 156 136 159 220 120 67 81 121 94 61 125 174 106 150 172 125 145 229 135 91 74 100 109 118 140 193 204 148 131 206 232 128 124 123 132 141 116 101 190 223 336 18 110 218 298 277 276 328 327 304 306 302 305 315 307 305 297 283 276 265
177 173 171 171 169 168 173 161 163 168 183 173 170 168 165 159 163 142 82 103 244 128 132 209 109 138 148 12 67 111 216 216 124 171 353 79 98 51 106 186 153 141 148 124 178 256 109 143 167 139 111 137 177 217 191 139 124 232 201 119 122 124 126 125 98 91 20 17 312 319 57 173 268 274 307 352 321 290 294 293 302 312 310 315 315 317 316 286
178 175 174 170 170 175 198 177 166 174 181 157 158 165 155 151 153 86 82 175 189 80 110 148 121 120 96 63 50 52 15 22 111 222 353 72 77 53 117 184 135 119 59 96 164 230 54 182 189 144 134 179 188 321 168 130 124 187 144 101 81 77 83 81 89 101 54 40 245 269 359 197 265 285 313 1 286 261 272 282 284 290 298 305 310 326 335 329
178 176 174 166 172 185 196 181 175 176 171 157 157 159 145 139 134 102 159 211 143 102 14 140 160 156 133 135 42 360 56 39 11 45 29 68 36 33 98 152 101 106 40 40 100 244 312 270 186 117 141 172 135 73 57 85 126 139 116 79 61 38 35 47 55 85 66 328 252 256 315 50 266 283 262 204 231 232 233 276 305 314 321 320 316 316 322 332
179 175 170 166 177 190 184 176 180 173 164 157 151 149 133 92 81 135 193 212 115 114 81 152 176 137 152 162 172 200 91 34 335 125 124 122 56 52 115 126 73 78 36 36 43 327 354 35 230 155 129 125 101 69 36 30 84 105 93 90 80 4 9 24 359 41 95 255 260 272 302 147 215 266 259 248 263 245 198 175 311 328 329 324 322 324 326 329
178 173 169 170 182 192 188 180 177 163 157 155 144 137 115 90 183 189 193 170 144 186 174 175 198 168 167 165 149 155 129 80 200 149 144 142 148 161 161 173 154 96 155 191 172 343 20 75 279 348 150 145 113 79 36 356 20 73 99 104 96 4 12 360 316 353 212 241 270 292 288 197 231 252 264 273 271 247 220 214 238 285 308 312 315 321 325 330
175 172 171 175 185 194 197 174 172 162 156 154 137 89 86 132 204 206 188 185 192 189 144 137 154 159 160 154 153 160 118 135 189 154 133 134 158 201 258 195 152 121 182 181 135 128 278 305 309 98 254 191 138 126 133 247 295 122 136 130 128 123 93 254 267 290 257 258 289 285 274 258 266 265 253 251 250 239 234 234 235 249 275 289 300 313 318 323
172 171 175 180 184 194 198 169 171 166 157 153 133 102 123 180 204 180 173 206 226 58 78 114 116 134 153 157 181 171 117 167 180 129 108 125 150 197 228 218 169 102 112 145 151 166 181 267 230 163 208 181 160 173 155 142 140 167 160 131 144 156 151 200 217 207 236 273 304 293 268 193 206 270 242 235 258 271 262 263 263 257 258 272 297 314 311 309
172 173 177 179 184 198 203 177 169 166 158 145 124 149 176 202 205 171 174 190 178 75 49 86 117 136 161 43 191 189 143 163 178 127 141 165 174 193 195 201 194 135 129 160 201 175 168 242 261 275 264 155 160 221 131 111 110 237 128 105 157 186 139 132 181 173 170 288 303 270 242 211 213 280 279 268 294 299 294 300 309 293 291 311 326 318 307 310
173 176 177 181 190 200 201 182 165 167 164 130 141 182 200 204 195 182 169 149 147 132 107 81 94 136 170 45 211 221 156 116 160 148 175 193 199 197 192 197 190 179 169 159 163 171 164 259 313 347 1 95 157 218 107 117 171 160 128 170 213 172 113 111 195 67 79 204 269 235 245 289 315 293 302 338 313 308 321 327 317 295 313 2 357 320 323 341
168 168 168 177 191 196 195 183 166 166 160 132 177 198 198 173 168 163 146 125 140 139 126 137 168 155 170 169 191 205 182 121 158 168 181 192 226 199 195 215 190 188 197 155 158 201 157 149 331 37 78 2 231 136 66 36 116 122 174 207 192 117 95 108 158 14 40 233 277 277 232 282 314 272 317 5 255 277 289 298 308 311 12 58 41 328 326 341
154 142 137 169 192 197 188 173 165 156 118 142 202 213 179 136 166 151 146 134 137 135 138 161 171 151 171 181 185 187 180 167 172 179 172 183 241 205 180 199 199 188 194 152 160 218 135 133 320 28 130 303 349 103 96 10 52 120 180 175 116 135 152 88 140 165 134 227 280 301 270 263 202 224 300 274 205 233 249 268 46 110 100 97 103 26 9 25
126 118 103 177 193 194 179 164 156 132 112 183 208 220 188 129 206 208 197 149 128 126 157 176 161 124 171 175 167 175 188 181 171 178 180 183 235 217 178 187 199 184 183 148 160 202 126 137 244 327 266 292 18 115 184 208 22 47 96 108 79 131 162 159 153 164 176 193 256 310 323 268 227 214 221 223 217 209 195 174 174 160 143 153 154 106 46 42
97 122 85 166 180 182 170 153 133 131 181 204 202 203 172 94 215 265 263 154 123 122 167 179 161 142 161 162 153 167 183 177 171 183 201 187 212 241 198 188 173 168 161 114 128 167 116 142 189 317 335 206 178 222 192 172 147 97 113 158 179 70 115 163 120 117 141 160 184 272 300 269 252 209 198 222 229 199 179 169 182 182 166 174 179 128 52 30
4 112 75 117 163 167 159 144 145 181 192 214 135 155 239 140 147 291 337 61 97 86 141 147 143 147 153 153 164 168 152 150 177 187 214 203 203 229 216 183 155 150 139 111 141 170 149 152 159 138 298 196 211 265 211 179 169 161 170 183 179 150 123 153 248 226 127 144 167 179 267 270 257 211 205 229 226 207 197 171 168 180 178 184 198 203 10 356
17 110 17 12 158 161 154 153 180 154 151 181 159 152 129 92 122 152 350 51 78 73 80 100 115 142 159 159 156 160 153 155 184 186 208 218 205 211 218 161 141 150 152 139 157 169 129 110 117 147 213 209 237 297 232 207 152 143 192 195 170 164 141 154 210 221 128 128 145 121 266 271 262 231 222 240 243 225 199 165 157 173 186 179 175 294 292 275
32 133 339 3 151 163 158 168 185 117 151 205 155 73 52 77 106 142 184 51 80 94 72 95 145 151 172 161 142 162 169 169 191 197 211 222 212 220 199 155 145 154 158 149 155 161 128 115 116 87 299 311 332 343 4 30 71 149 232 194 164 185 154 148 183 172 146 181 147 94 275 267 273 269 248 258 273 239 186 167 155 163 180 183 204 278 283 279
39 28 339 8 109 158 169 187 194 183 164 117 83 81 18 55 116 136 164 182 150 131 121 144 171 154 159 148 137 170 184 180 197 207 205 199 213 267 157 167 164 161 169 184 177 176 191 163 132 117 28 354 344 340 333 318 224 203 223 192 172 151 102 98 119 109 149 209 164 145 237 254 272 305 3 4 313 165 174 186 166 159 175 203 248 266 272 287
68 45 325 353 32 83 154 177 175 155 135 116 125 141 117 52 48 149 151 154 153 146 141 157 156 107 110 131 107 154 187 178 175 199 195 201 236 354 41 192 190 179 188 200 150 162 185 178 152 156 174 195 207 210 224 221 190 197 206 176 174 150 139 152 128 115 219 227 161 168 231 252 281 337 56 74 182 167 183 224 226 195 196 212 233 251 252 245
121 113 170 3 22 43 155 75 82 117 143 148 151 161 147 126 326 319 125 142 161 127 100 86 133 97 97 148 130 159 201 194 81 163 187 200 224 319 354 261 195 191 133 104 136 144 139 182 191 191 201 207 203 202 177 128 141 192 180 158 167 171 170 158 114 167 208 173 163 218 231 234 252 257 179 197 195 183 191 211 219 225 229 220 223 233 212 181
115 151 150 128 127 189 189 149 150 165 190 172 164 172 165 146 103 323 10 187 181 136 78 51 142 147 165 168 154 174 200 189 103 160 182 186 192 320 341 64 106 305 40 112 154 124 105 207 211 201 222 224 181 179 177 138 161 190 172 163 177 179 174 167 188 214 189 116 232 235 209 222 234 208 205 217 203 203 213 208 205 211 225 227 224 231 96 88
66 139 143 36 120 189 200 181 165 161 180 180 153 159 169 170 172 178 196 359 24 141 129 89 242 179 170 168 159 162 171 174 200 198 160 148 143 84 13 51 62 312 33 85 246 106 132 212 209 186 231 242 158 160 190 165 175 187 175 179 182 175 179 187 210 223 184 173 240 224 167 215 231 191 201 213 198 204 213 205 194 181 221 236 184 76 54 40
30 53 328 357 37 173 270 155 154 154 164 167 162 163 173 182 187 177 126 101 345 279 165 180 227 190 165 155 140 156 170 177 209 209 162 138 149 127 105 102 355 328 88 115 176 146 154 217 196 167 223 244 200 171 190 177 180 187 184 189 182 178 189 195 211 223 208 211 240 218 174 227 232 186 203 213 195 200 200 181 177 174 219 235 104 96 89 75
98 126 316 29 52 32 346 145 155 159 163 167 182 190 172 187 190 177 147 149 169 218 189 183 199 174 159 149 129 164 189 145 157 200 173 152 172 174 174 182 167 75 127 153 173 196 191 220 170 141 202 254 213 172 194 188 183 197 200 196 188 187 199 206 215 222 214 223 245 244 232 254 242 172 201 209 159 162 162 194 204 203 218 206 139 131 125 105
114 55 116 105 94 205 334 150 158 161 171 180 187 171 168 197 192 168 176 172 151 168 179 171 167 136 129 161 167 205 206 127 104 171 167 154 170 180 185 179 155 146 168 171 151 159 182 204 73 113 182 253 222 174 185 141 112 240 239 202 196 197 205 213 217 214 201 213 234 239 245 256 231 159 183 167 134 168 206 214 204 200 214 193 155 144 130 115
103 17 62 109 86 247 146 52 168 177 190 188 181 165 165 191 179 145 165 290 137 169 170 159 160 140 134 195 211 209 189 149 116 130 132 113 109 108 93 122 138 146 161 160 132 141 162 160 131 147 184 260 300 151 143 96 84 257 242 210 201 203 209 216 225 228 215 205 210 221 233 244 203 150 163 172 173 194 211 212 199 194 199 185 155 142 131 119